Terminal Aerodrome Forecast
Issued by NWS Dodge City, KS

Home | Current Version | Previous Version | Graphics & Text | Print | Product List | Glossary Off
Versions: 1 2 3 4 5 6 7 8 9 10 11 12 13 14 15 16 17 18 19 20 21 22 23 24 25 26 27 28 29 30 31 32 33 34 35 36 37 38 39 40 41 42 43 44 45 46 47 48 49 50

000
FTUS43 KDDC 031455 AAI
TAFDDC
TAF AMD
KDDC 031455Z 0315/0412 34004KT 2SM BR BKN001 OVC018
     FM031800 10007KT P6SM OVC003
     FM040000 VRB06KT P6SM BKN003
     FM040300 VRB06KT P6SM SKC=

USA.gov is the U.S. government's official web portal to all federal, state and local government web resources and services.